Weather History for Middletown, OH

Change the Weather History Date:

Tuesday, June 18, 2013

  Actual Average (KDAY) Record (KDAY)
Temperature  
Mean Temperature 72 °F 72 °F  
Max Temperature 82 °F 81 °F 101 °F (1944)
Min Temperature 62 °F 62 °F 47 °F (1903)
Degree Days  
Heating Degree Days 0 0  
Month to date heating degree days 22  
Since 1 June heating degree days 22  
Since 1 July heating degree days 5642  
Cooling Degree Days 7 7  
Month to date cooling degree days 94  
Year to date cooling degree days 164  
Since 1 June cooling degree days 94  
Growing Degree Days 22 (Base 50)    
Moisture  
Dew Point 67 °F    
Average Humidity 82    
Maximum Humidity 100    
Minimum Humidity 58    
Precipitation  
Precipitation 0.00 in 0.14 in 1.82 in (1978)
Month to date precipitation 2.53  
Year to date precipitation 19.57  
Snow  
Snow 0.00 in 0.00 in - (0.0)
Month to date snowfall 0.0  
Since 1 June snowfall 0.0  
Since 1 July snowfall 23.3  
Snow Depth -    
Sea Level Pressure  
Sea Level Pressure 29.93 in    
Wind  
Wind Speed 6 mph (NW)    
Max Wind Speed 13 mph    
Max Gust Speed 21 mph    
Visibility 9 miles    
Events Rain    
T = Trace of Precipitation, MM = Missing Value Source: NWS Daily Summary

Daily Weather History Graph

Daily Weather History Graph

Search for Another Location

Airport:

Trip Planner

Search our weather history database for the weather conditions in past years. The results will help you decide how hot, cold, wet, or windy it might be!

Date:

Astronomy

Jun. 18, 2013 Rise Set
Actual Time 6:09 AM EDT 9:07 PM EDT
Civil Twilight 5:37 AM EDT 9:40 PM EDT
Nautical Twilight 4:56 AM EDT 10:21 PM EDT
Astronomical Twilight 4:08 AM EDT 11:09 PM EDT
Moon 3:52 PM EDT (6/18) 2:16 AM EDT (6/18)
Length of Visible Light 16h 02m
Length of Day
14h 57m
Waxing Gibbous, 70% of the Moon is Illuminated
Jun 18
Waxing Gibbous
Jun 23
Full
Jun 30
Last Quarter
Jul 8
New
Jul 15
First Quarter

Hourly Weather History & Observations

Time (EDT) Temp. Heat Index Dew Point Humidity Pressure Visibility Wind Dir Wind Speed Gust Speed Precip Events Conditions
12:15 AM 73.9 °F - 71.1 °F 91% 29.93 in 10.0 mi SW 10.4 mph - N/A   Mostly Cloudy
12:35 AM 72.7 °F - 66.6 °F 81% 29.92 in 10.0 mi SW 10.4 mph - N/A   Scattered Clouds
12:55 AM 72.7 °F - 66.4 °F 81% 29.92 in 10.0 mi SW 5.8 mph - N/A   Clear
1:15 AM 72.7 °F - 68.0 °F 85% 29.91 in 10.0 mi SW 6.9 mph - N/A   Clear
1:35 AM 72.7 °F - 69.3 °F 89% 29.92 in 10.0 mi SW 8.1 mph - N/A   Clear
1:55 AM 72.7 °F - 69.6 °F 90% 29.92 in 10.0 mi SW 8.1 mph - N/A   Clear
2:15 AM 70.2 °F - 67.3 °F 91% 29.92 in 10.0 mi WSW 5.8 mph - N/A   Scattered Clouds
2:35 AM 69.1 °F - 66.4 °F 91% 29.91 in 10.0 mi SSW 3.5 mph - N/A   Clear
2:55 AM 68.9 °F - 66.4 °F 92% 29.92 in 10.0 mi West 3.5 mph - N/A   Clear
3:15 AM 67.8 °F - 66.2 °F 95% 29.90 in 10.0 mi SW 3.5 mph - N/A   Scattered Clouds
3:35 AM 67.6 °F - 66.4 °F 96% 29.89 in 10.0 mi WSW 4.6 mph - N/A   Scattered Clouds
3:55 AM 67.6 °F - 66.6 °F 96% 29.90 in 10.0 mi Calm Calm - N/A   Clear
4:15 AM 67.6 °F - 67.3 °F 99% 29.90 in 10.0 mi Calm Calm - N/A   Scattered Clouds
4:35 AM 67.6 °F - 67.6 °F 100% 29.89 in 10.0 mi Calm Calm - N/A   Mostly Cloudy
4:55 AM 67.6 °F - 67.5 °F 99% 29.89 in 10.0 mi Calm Calm - N/A   Mostly Cloudy
5:15 AM 67.6 °F - 67.6 °F 100% 29.90 in 10.0 mi SSW 4.6 mph - N/A   Overcast
5:35 AM 69.4 °F - 65.7 °F 88% 29.90 in 10.0 mi WSW 3.5 mph - N/A   Overcast
5:55 AM 67.6 °F - 66.0 °F 95% 29.92 in 2.5 mi NNW 12.7 mph 20.7 mph N/A Rain Heavy Rain
6:15 AM 67.6 °F - 66.4 °F 96% 29.92 in 4.0 mi WSW 5.8 mph 9.2 mph N/A Rain Heavy Rain
6:35 AM 67.6 °F - 67.6 °F 100% 29.93 in 1.5 mi SW 4.6 mph - N/A Rain Heavy Rain
6:55 AM 67.6 °F - 67.6 °F 100% 29.94 in 1.0 mi WNW 4.6 mph - N/A Rain Heavy Rain
7:15 AM 66.9 °F - 65.5 °F 95% 29.93 in 1.2 mi WNW 5.8 mph 16.1 mph N/A Rain Heavy Rain
7:35 AM 67.6 °F - 67.6 °F 100% 29.95 in 2.5 mi SSW 3.5 mph - N/A Rain Heavy Rain
7:55 AM 65.3 °F - 65.3 °F 100% 29.95 in 1.8 mi Calm Calm - N/A Rain Heavy Rain
8:15 AM 62.6 °F - 62.6 °F 100% 29.95 in 1.5 mi SW 4.6 mph - N/A Rain Heavy Rain
8:35 AM 65.3 °F - 65.3 °F 100% 29.96 in 4.0 mi SSW 5.8 mph - N/A Rain Rain
8:55 AM 65.3 °F - 65.3 °F 100% 29.96 in 7.0 mi SW 5.8 mph - N/A   Overcast
9:15 AM 67.6 °F - 67.6 °F 100% 29.95 in 7.0 mi SSW 3.5 mph - N/A Rain Light Rain
9:35 AM 67.6 °F - 67.6 °F 100% 29.95 in 7.0 mi WSW 3.5 mph - N/A   Overcast
9:55 AM 67.6 °F - 67.6 °F 100% 29.95 in 7.0 mi SW 3.5 mph - N/A   Mostly Cloudy
10:15 AM 67.6 °F - 67.6 °F 100% 29.95 in 10.0 mi Calm Calm - N/A   Scattered Clouds
10:35 AM 67.6 °F - 67.6 °F 100% 29.93 in 10.0 mi Calm Calm - N/A   Clear
10:55 AM 72.7 °F - 71.2 °F 95% 29.93 in 10.0 mi WNW 4.6 mph - N/A   Clear
11:15 AM 73.9 °F - 70.2 °F 88% 29.94 in 10.0 mi WNW 4.6 mph - N/A   Clear
11:35 AM 74.5 °F - 71.1 °F 89% 29.94 in 10.0 mi West 4.6 mph - N/A   Clear
11:55 AM 75.2 °F - 70.7 °F 86% 29.94 in 10.0 mi Calm Calm - N/A   Clear
12:15 PM 75.4 °F - 70.0 °F 83% 29.93 in 10.0 mi NW 3.5 mph - N/A   Clear
12:35 PM 77.9 °F - 71.1 °F 79% 29.93 in 10.0 mi NNW 5.8 mph - N/A   Scattered Clouds
12:55 PM 79.0 °F - 70.0 °F 74% 29.92 in 10.0 mi North 5.8 mph - N/A   Scattered Clouds
1:15 PM 77.9 °F - 68.0 °F 71% 29.92 in 10.0 mi Calm Calm - N/A   Mostly Cloudy
1:35 PM 80.2 °F 83.1 °F 68.9 °F 68% 29.92 in 10.0 mi Calm Calm - N/A   Scattered Clouds
1:55 PM 80.8 °F 83.5 °F 68.0 °F 65% 29.92 in 10.0 mi Calm Calm - N/A   Scattered Clouds
2:15 PM 80.8 °F 83.5 °F 68.0 °F 65% 29.92 in 10.0 mi Calm Calm - N/A   Scattered Clouds
2:35 PM 81.1 °F 83.4 °F 66.7 °F 61% 29.91 in 10.0 mi Calm Calm - N/A   Scattered Clouds
2:55 PM 80.4 °F 82.8 °F 67.3 °F 64% 29.90 in 10.0 mi North 3.5 mph - N/A   Mostly Cloudy
3:15 PM 81.9 °F 83.9 °F 65.7 °F 58% 29.90 in 10.0 mi West 3.5 mph - N/A   Scattered Clouds
3:35 PM 80.6 °F 82.4 °F 65.1 °F 59% 29.90 in 10.0 mi NW 3.5 mph - N/A   Scattered Clouds
3:55 PM 79.9 °F - 66.0 °F 62% 29.90 in 10.0 mi NNW 5.8 mph - N/A   Scattered Clouds
4:15 PM 81.0 °F 83.3 °F 66.7 °F 62% 29.91 in 10.0 mi North 6.9 mph - N/A   Clear
4:35 PM 82.0 °F 84.3 °F 66.2 °F 59% 29.90 in 10.0 mi North 8.1 mph - N/A   Scattered Clouds
4:55 PM 81.5 °F 84.1 °F 67.3 °F 62% 29.90 in 10.0 mi NNE 10.4 mph - N/A   Scattered Clouds
5:15 PM 81.5 °F 83.9 °F 67.1 °F 61% 29.90 in 10.0 mi North 8.1 mph - N/A   Clear
5:35 PM 81.0 °F 83.2 °F 66.4 °F 61% 29.90 in 10.0 mi NNE 10.4 mph 16.1 mph N/A   Clear
5:55 PM 79.7 °F - 66.2 °F 63% 29.89 in 10.0 mi North 6.9 mph 17.3 mph N/A   Clear
6:15 PM 80.1 °F 82.1 °F 65.8 °F 62% 29.89 in 10.0 mi North 10.4 mph - N/A   Clear
6:35 PM 78.8 °F - 66.6 °F 66% 29.89 in 10.0 mi North 9.2 mph - N/A   Clear
6:55 PM 77.9 °F - 65.7 °F 66% 29.89 in 10.0 mi North 11.5 mph 16.1 mph N/A   Clear
7:15 PM 77.9 °F - 66.7 °F 68% 29.91 in 10.0 mi NNE 9.2 mph - N/A   Clear
7:35 PM 75.2 °F - 64.4 °F 69% 29.92 in 10.0 mi North 6.9 mph - N/A   Clear
7:55 PM 75.2 °F - 64.8 °F 70% 29.93 in 10.0 mi NNE 5.8 mph - N/A   Clear
8:15 PM 75.2 °F - 64.4 °F 69% 29.94 in 10.0 mi North 5.8 mph - N/A   Clear
8:35 PM 75.2 °F - 64.9 °F 70% 29.94 in 10.0 mi NNE 4.6 mph - N/A   Clear
8:55 PM 72.7 °F - 64.4 °F 75% 29.95 in 10.0 mi NNE 4.6 mph - N/A   Clear
9:15 PM 72.7 °F - 63.7 °F 73% 29.96 in 10.0 mi NNE 6.9 mph - N/A   Clear
9:35 PM 72.7 °F - 63.7 °F 73% 29.97 in 10.0 mi NNE 11.5 mph 16.1 mph N/A   Clear
9:55 PM 72.7 °F - 64.4 °F 75% 29.97 in 10.0 mi NE 11.5 mph 17.3 mph N/A   Clear
10:15 PM 72.7 °F - 64.8 °F 76% 29.98 in 10.0 mi ENE 10.4 mph 17.3 mph N/A   Clear
10:35 PM 72.7 °F - 65.5 °F 78% 29.99 in 10.0 mi ENE 11.5 mph - N/A   Clear
10:55 PM 71.6 °F - 63.7 °F 76% 30.00 in 10.0 mi NE 9.2 mph - N/A   Clear
11:15 PM 68.9 °F - 62.1 °F 79% 30.01 in 10.0 mi NE 6.9 mph - N/A   Clear
11:35 PM 67.6 °F - 60.6 °F 78% 30.02 in 10.0 mi ENE 9.2 mph - N/A   Clear
11:55 PM 67.6 °F - 61.3 °F 80% 30.03 in 10.0 mi NE 5.8 mph - N/A   Clear